Date,TemperatureHighF,TemperatureAvgF,TemperatureLowF,DewpointHighF,DewpointAvgF,DewpointLowF,HumidityHigh,HumidityAvg,HumidityLow,PressureMaxIn,PressureMinIn,WindSpeedMaxMPH,WindSpeedAvgMPH,GustSpeedMaxMPH,PrecipitationSumIn
2013-3-1,41.9,37.7,32.4,35.5,30.9,27.9,96,77,63,29.70,29.55,9,0,9,0.00
2013-3-2,45.1,37.8,30.2,30.1,27.7,25.6,83,67,53,29.69,29.64,10,0,10,0.00
2013-3-3,43.2,36.2,32.4,33.0,29.1,25.2,91,75,64,29.67,29.58,9,1,9,0.00
2013-3-4,41.1,34.6,29.5,28.4,24.6,21.8,84,67,49,29.75,29.59,15,2,15,0.00
2013-3-5,46.4,37.0,30.6,33.0,27.9,22.4,91,70,52,30.09,29.76,14,1,14,0.00
2013-3-6,40.9,37.0,34.3,35.6,33.1,29.6,94,86,69,30.14,30.07,18,1,18,0.12
2013-3-7,35.9,32.5,30.6,32.4,30.1,28.7,95,91,77,30.10,30.01,17,1,17,0.17
2013-3-8,39.9,33.1,29.3,31.5,28.3,23.0,96,84,56,30.17,29.96,10,0,10,0.15
2013-3-9,48.9,36.5,27.1,32.9,26.7,21.2,96,69,47,30.38,30.17,12,0,12,0.44
2013-3-10,45.8,35.4,26.7,33.5,30.1,25.5,96,82,61,30.44,30.34,8,0,8,0.01
2013-3-11,55.4,43.1,35.1,40.4,36.2,32.0,93,78,54,30.36,30.18,9,1,9,0.00
2013-3-12,56.9,50.1,40.8,53.2,47.6,39.2,96,91,79,30.19,29.75,15,1,15,0.30
2013-3-13,53.9,45.1,34.1,51.6,31.6,19.6,97,62,31,29.80,29.71,13,1,13,0.00
2013-3-14,37.1,32.3,22.4,24.5,15.5,6.8,68,50,36,29.85,29.73,14,1,14,0.00
2013-3-15,42.5,30.3,19.2,27.1,12.3,3.7,72,48,24,29.90,29.65,13,2,13,0.00
2013-3-16,41.5,34.0,24.0,26.2,15.1,8.3,80,48,27,29.90,29.69,11,1,11,0.00
2013-3-17,39.9,30.7,21.3,17.8,10.8,4.1,79,46,24,30.35,29.90,15,1,15,0.00
2013-3-18,39.4,28.5,16.7,27.2,10.5,0.6,92,48,26,30.48,30.27,9,1,9,0.00
2013-3-19,35.6,32.4,27.9,34.4,31.3,25.9,97,96,91,30.27,29.63,13,1,13,0.63
2013-3-20,41.4,31.3,23.9,25.8,22.2,18.3,95,71,42,29.84,29.71,14,1,14,0.19
2013-3-21,39.9,30.5,20.5,29.1,22.7,16.6,92,75,42,29.84,29.64,6,0,6,0.03
2013-3-22,43.2,34.3,27.3,27.6,20.5,15.9,94,59,35,29.76,29.63,10,1,10,0.00
2013-3-23,45.3,35.8,26.1,23.8,19.8,16.7,77,54,32,29.80,29.65,18,2,18,0.00
2013-3-24,50.1,38.6,28.6,30.9,24.2,19.8,82,58,36,29.83,29.75,13,1,13,0.00
2013-3-25,46.9,37.9,31.4,35.0,30.5,26.0,86,75,55,29.80,29.55,15,0,15,0.00
2013-3-26,52.2,41.5,33.4,31.1,24.8,18.9,89,54,29,29.80,29.56,14,1,14,0.00
2013-3-27,55.5,43.3,29.5,32.3,24.5,21.5,73,49,30,29.89,29.75,14,1,14,0.00
2013-3-28,48.4,42.2,36.4,35.9,33.5,28.9,91,72,48,30.03,29.88,9,0,9,0.01
2013-3-29,57.9,45.2,33.4,38.9,32.9,28.1,87,64,36,30.06,29.98,6,0,14,0.02
2013-3-30,59.6,46.7,33.3,33.8,25.4,12.6,79,49,16,30.12,30.01,12,1,12,0.00
2013-3-31,61.6,45.4,26.8,40.1,27.4,20.9,88,55,22,30.15,29.77,13,1,13,0.01